Weather History for KRUE - January, 2013

Change the Weather History Date:

Monday, January 28, 2013

  Actual Average (KHOT) Record (KHOT)
Temperature  
Mean Temperature 64 °F -  
Max Temperature 71 °F 54 °F 78 °F (1975)
Min Temperature 57 °F 31 °F 10 °F (1963)
Degree Days  
Heating Degree Days 1    
Growing Degree Days 14 (Base 50)    
Moisture  
Dew Point 60 °F    
Average Humidity 82    
Maximum Humidity 97    
Minimum Humidity 73    
Precipitation  
Precipitation 0.01 in - - ()
Sea Level Pressure  
Sea Level Pressure 29.98 in    
Wind  
Wind Speed 2 mph (SSE)    
Max Wind Speed 8 mph    
Max Gust Speed -    
Visibility 9 miles    
Events      
Averages and records for this station are not official NWS values.
T = Trace of Precipitation, MM = Missing Value Source: NWS Daily Summary

Daily Weather History Graph

Daily Weather History Graph

Search for Another Location

Airport or City:

Trip Planner

Search our weather history database for the weather conditions in past years. The results will help you decide how hot, cold, wet, or windy it might be!

Date:

Astronomy

Jan. 28, 2013 Rise Set
Actual Time 7:14 AM CST 5:36 PM CST
Civil Twilight 6:47 AM CST 6:03 PM CST
Nautical Twilight 6:16 AM CST 6:34 PM CST
Astronomical Twilight 5:46 AM CST 7:04 PM CST
Moon 7:25 PM CST (1/28) 7:45 AM CST (1/28)
Length of Visible Light 11h 16m
Length of Day
10h 22m
Full, 98% of the Moon is Illuminated
Jan 28
Full
Feb 3
Last Quarter
Feb 10
New
Feb 17
First Quarter
Feb 25
Full

Hourly Weather History & Observations

Time (CST) Temp. Dew Point Humidity Pressure Visibility Wind Dir Wind Speed Gust Speed Precip Events Conditions
12:53 AM 60.1 °F 55.9 °F 86% 30.01 in 10.0 mi Variable 4.6 mph - 0.00 in   Overcast
1:53 AM 59.0 °F 55.9 °F 90% 30.01 in 9.0 mi Calm Calm - N/A   Overcast
2:53 AM 57.9 °F 55.9 °F 93% 30.01 in 8.0 mi Calm Calm - 0.00 in   Overcast
3:53 AM 59.0 °F 57.0 °F 93% 30.00 in 6.0 mi Calm Calm - N/A   Overcast
4:34 AM 60.8 °F 57.2 °F 88% 30.01 in 2.0 mi Calm Calm - 0.01 in   Overcast
4:45 AM 60.8 °F 57.2 °F 88% 30.01 in 4.0 mi Calm Calm - 0.01 in   Overcast
4:53 AM 60.1 °F 57.9 °F 93% 29.99 in 5.0 mi ENE 3.5 mph - 0.01 in   Overcast
5:53 AM 61.0 °F 60.1 °F 97% 29.99 in 7.0 mi Calm Calm - N/A   Overcast
6:53 AM 64.0 °F 60.1 °F 87% 30.01 in 10.0 mi Calm Calm - N/A   Overcast
7:53 AM 63.0 °F 60.1 °F 90% 30.02 in 8.0 mi Calm Calm - N/A   Overcast
8:53 AM 64.9 °F 61.0 °F 87% 30.04 in 10.0 mi Calm Calm - N/A   Overcast
9:53 AM 64.9 °F 61.0 °F 87% 30.04 in 9.0 mi Calm Calm - N/A   Overcast
10:53 AM 66.9 °F 61.0 °F 81% 30.05 in 10.0 mi Calm Calm - N/A   Overcast
11:53 AM 66.9 °F 61.0 °F 81% 30.03 in 10.0 mi East 3.5 mph - N/A   Overcast
12:53 PM 68.0 °F 61.0 °F 78% 30.00 in 10.0 mi Calm Calm - N/A   Overcast
1:53 PM 69.1 °F 62.1 °F 78% 29.97 in 10.0 mi East 3.5 mph - N/A   Overcast
2:28 PM 69.8 °F 62.6 °F 78% 29.97 in 10.0 mi South 5.8 mph - N/A   Overcast
2:41 PM 69.8 °F 62.6 °F 78% 29.97 in 10.0 mi Variable 4.6 mph - N/A   Overcast
2:53 PM 71.1 °F 62.1 °F 73% 29.95 in 10.0 mi Variable 4.6 mph - N/A   Overcast
3:53 PM 70.0 °F 62.1 °F 76% 29.95 in 10.0 mi South 4.6 mph - N/A   Overcast
4:53 PM 70.0 °F 62.1 °F 76% 29.94 in 10.0 mi South 4.6 mph - N/A   Overcast
5:04 PM 69.8 °F 62.6 °F 78% 29.95 in 10.0 mi South 8.1 mph - N/A   Overcast
5:53 PM 68.0 °F 61.0 °F 78% 29.92 in 10.0 mi Calm Calm - N/A   Mostly Cloudy
6:53 PM 68.0 °F 61.0 °F 78% 29.93 in 10.0 mi Calm Calm - N/A   Overcast
7:51 PM 66.2 °F 60.8 °F 83% 29.95 in 10.0 mi Calm Calm - N/A   Overcast
7:53 PM 66.0 °F 60.1 °F 81% 29.93 in 10.0 mi Calm Calm - N/A   Overcast
8:09 PM 69.8 °F 60.8 °F 73% 29.95 in 10.0 mi Variable 3.5 mph - N/A   Overcast
8:53 PM 69.1 °F 61.0 °F 75% 29.93 in 10.0 mi Variable 3.5 mph - N/A   Mostly Cloudy
9:53 PM 68.0 °F 61.0 °F 78% 29.92 in 10.0 mi South 6.9 mph - N/A   Overcast
10:53 PM 69.1 °F 61.0 °F 75% 29.91 in 10.0 mi Variable 4.6 mph - N/A   Overcast
11:53 PM 70.0 °F 61.0 °F 73% 29.91 in 10.0 mi South 5.8 mph - N/A   Overcast